[[{"header":{"parameterUnit":"m.s-1","parameterCategory":1,"la1":30.2991,"la2":30.254,"lo1":-89.0895,"lo2":-89.0444,"dy":0.0017,"dx":0.0017,"nx":28,"ny":28,"refTime":"2024-10-16T21:00:00:Z","depth":0,"parameterNumber":2,"parameterNumberName":"U-component_of_WINDS"},"data":[0,0,0,0,0,0,0,0,0,0,0,0,0,0,0,0,0,0,0,0,0,0,0,0,0,0,0,0,0,0,0,0,0,0,0,0,0,0,0,0,0,0,0,0,0,0,0,0,0,0,0,0,0,0,0,0,0,0,-5.1693,-5.1694,0,-5.1767,-5.1768,-5.1769,-5.1571,-5.1565,-5.1559,-5.1553,-5.1631,-5.1639,-5.1647,0,0,0,0,0,0,0,0,0,0,0,0,0,-5.1381,-5.1388,-5.1693,-5.1694,-5.1695,-5.1767,-5.1768,-5.1769,-5.1572,-5.1565,-5.1557,-5.155,-5.1629,-5.1638,-5.1647,0,0,0,0,0,0,0,0,0,0,0,0,0,-5.1492,-5.139,-5.1693,-5.1605,-5.1598,-5.1767,-5.1768,-5.1769,-5.1574,-5.1565,-5.1555,-5.1547,-5.1626,-5.1637,-5.1649,-5.1906,0,0,-5.1684,-5.169,0,0,0,0,0,0,0,0,-5.1486,-5.1504,-5.1617,-5.1612,-5.1604,-5.165,-5.1686,-5.1815,-5.1576,-5.1583,-5.1553,-5.1542,-5.1645,-5.1655,-5.1689,-5.191,-5.1913,-5.1685,-5.1693,-5.1698,-5.1701,0,0,0,0,0,0,0,-5.1479,-5.1499,-5.1722,-5.1619,-5.1611,-5.1562,-5.1568,-5.171,-5.1665,-5.1582,-5.1568,-5.1579,-5.164,-5.1678,-5.1689,-5.1914,-5.1685,-5.1696,-5.1703,-5.1707,-5.2349,-5.2358,0,0,0,0,0,0,-5.1482,-5.1494,-5.172,-5.1725,-5.1521,-5.1575,-5.1582,-5.1645,-5.1663,-5.1657,-5.1587,-5.157,-5.1663,-5.1676,-5.1691,-5.1993,-5.1698,-5.1709,-5.1715,-5.2339,-5.2351,-5.2362,0,0,0,0,0,0,-5.1476,-5.1504,-5.1717,-5.1606,-5.1629,-5.1591,-5.1663,-5.1651,-5.1689,-5.1667,-5.1658,-5.1634,-5.1656,-5.1675,-5.1854,-5.1993,-5.1714,-5.1725,-5.2327,-5.2342,-5.2356,-5.2601,0,0,0,0,0,0,-5.1468,-5.1503,-5.1601,-5.1609,-5.1636,-5.1879,-5.1672,-5.1659,-5.171,-5.1688,-5.1709,-5.1704,-5.165,-5.1837,-5.1866,-5.2005,-5.1734,-5.2314,-5.2334,-5.2351,-5.258,-5.2622,-5.2658,0,0,0,0,0,-5.1458,-5.1668,-5.1607,-5.1635,-5.1757,-5.1887,-5.1902,-5.1836,-5.1722,-5.182,-5.1805,-5.1703,-5.1974,-5.1857,-5.1887,-5.2032,-5.2305,-5.2328,-5.235,-5.2563,-5.2614,-5.2657,0,0,0,0,0,0,-5.1678,-5.1667,-5.16,-5.1819,-5.1856,-5.1854,-5.1975,-5.1893,-5.1963,-5.194,-5.1854,-5.1861,-5.2056,-5.2061,-5.1932,-5.2282,-5.212,-5.2149,-5.2271,-5.232,-5.2358,-5.2353,-5.1743,0,0,0,0,0,-5.1752,-5.1858,-5.1843,-5.2038,-5.2059,-5.2015,-5.2069,-5.2014,-5.2049,-5.2064,-5.2062,-5.21,-5.2193,-5.2256,-5.2341,-5.2579,-5.2581,-5.2694,-5.2733,-5.2765,-5.2792,-5.2917,-5.2967,-5.2435,-5.2435,-5.2435,0,0,-5.1906,-5.1913,-5.1986,-5.2082,-5.2104,-5.2216,-5.2029,-5.2156,-5.2238,-5.2083,-5.2252,-5.2252,-5.2288,-5.2498,-5.259,-5.2509,-5.2939,-5.2794,-5.282,-5.2829,-5.2946,-5.2996,-5.3041,-5.2451,-5.2448,-5.2445,0,0,-5.2244,-5.226,-5.2424,-5.2449,-5.2484,-5.2452,-5.2492,-5.2503,-5.2497,-5.2664,-5.2549,-5.2646,-5.2809,-5.2839,-5.2876,-5.3224,-5.3133,-5.3254,-5.3459,-5.3582,-5.3624,-5.3661,-5.3785,-5.383,-5.328,-5.3281,-5.3281,0,-5.2431,-5.2595,-5.2518,-5.2653,-5.2698,-5.2561,-5.2726,-5.2754,-5.2816,-5.2851,-5.2758,-5.2958,-5.2973,-5.3188,-5.3272,-5.3307,-5.3349,-5.3251,-5.3624,-5.366,-5.3693,-5.381,-5.3857,-5.3295,-5.3294,-5.3292,-5.3291,0,-5.2824,-5.2939,-5.3067,-5.3129,-5.3188,-5.3338,-5.3283,-5.3353,-5.3292,-5.3271,-5.3443,-5.3455,-5.354,-5.3586,-5.3529,-5.3793,-5.3741,-5.3638,-5.3474,-5.376,-5.3868,-5.3913,-5.3316,-5.3311,-5.3307,-5.3303,0,0,-5.3305,-5.332,-5.3368,-5.3394,-5.3422,-5.351,-5.3652,-5.3733,-5.3795,-5.3841,-5.3958,-5.4098,-5.4002,-5.4044,-5.3989,-5.4098,-5.4372,-5.398,-5.398,-5.4053,-5.4662,-5.474,-5.4793,-5.4311,-5.4319,-5.4325,-5.4659,0,-5.3638,-5.3881,-5.3815,-5.4059,-5.4164,-5.4035,-5.4158,-5.4189,-5.4172,-5.4259,-5.424,-5.4341,-5.4207,-5.4231,-5.4332,-5.4317,-5.4493,-5.4292,-5.4419,-5.4425,-5.4415,-5.485,-5.4933,-5.5247,-5.4701,-5.4708,-5.4713,0,-5.406,-5.4121,-5.4376,-5.4384,-5.4426,-5.4539,-5.4607,-5.4691,-5.4723,-5.4703,-5.475,-5.4672,-5.4812,-5.4646,-5.4838,-5.4702,-5.475,-5.4751,-5.4761,-5.4771,-5.4587,-5.4872,-5.5346,-5.5394,-5.478,-5.4774,-5.477,0,-5.4385,-5.4531,-5.4702,-5.4728,-5.4742,-5.4824,-5.4834,-5.4856,-5.4909,-5.4969,-5.5002,-5.5078,-5.512,-5.5181,-5.5126,-5.501,-5.5326,-5.5156,-5.5314,-5.5316,-5.5387,-5.5383,-5.5876,-5.5418,-5.5417,-5.5416,-5.5415,0,-5.4764,-5.4925,-5.4848,-5.4953,-5.5128,-5.505,-5.5226,-5.5221,-5.5242,-5.5344,-5.5236,-5.5334,-5.5255,-5.5346,-5.5304,-5.5469,-5.5488,-5.5476,-5.5463,-5.5486,-5.5488,-5.5517,-5.5494,-5.5429,-5.5426,-5.5424,-5.5421,0,-5.5158,-5.5113,-5.529,-5.5288,-5.5292,-5.5421,-5.542,-5.5517,-5.5491,-5.5621,-5.5647,-5.5608,-5.5709,-5.5659,-5.5765,-5.5737,-5.5949,-5.5907,-5.5939,-5.5928,-5.6089,-5.6074,-5.6617,-5.6684,-5.6184,-5.6188,-5.6192,0,-5.5403,-5.5523,-5.5534,-5.5594,-5.5611,-5.5709,-5.5762,-5.5689,-5.5749,-5.5793,-5.5885,-5.5976,-5.6046,-5.6213,-5.6194,-5.6275,-5.6233,-5.6418,-5.6245,-5.6264,-5.6236,-5.623,-5.6241,-5.6453,-5.6459,-5.6464,-5.6468,0,-5.5844,-5.5815,-5.5894,-5.5967,-5.6032,-5.6086,-5.6131,-5.6186,-5.6114,-5.6186,-5.6288,-5.6342,-5.6449,-5.6541,-5.6611,-5.662,-5.6534,-5.6522,-5.6563,-5.6588,-5.6601,-5.6596,-5.6034,-5.651,-5.6506,-5.6503,-5.6501,-5.6499,-5.617,-5.627,-5.6293,-5.6385,-5.6411,-5.6455,-5.6545,-5.653,-5.6613,-5.6694,-5.6646,-5.6766,-5.6792,-5.6876,-5.6898,-5.699,-5.6916,-5.6976,-5.6991,-5.7006,-5.7028,-5.6587,-5.7002,-5.7001,-5.7,-5.6999,-5.6998,0,-5.6604,-5.6612,-5.6698,-5.6763,-5.6835,-5.6745,-5.6789,-5.6856,-5.6962,-5.6994,-5.7064,-5.718,-5.7269,-5.7256,-5.7337,-5.7413,-5.7375,-5.7437,-5.7431,-5.7434,-5.7089,-5.7046,-5.7466,-5.7466,-5.7466,-5.7466,-5.7466,-5.7466,-5.6839,-5.7004,-5.6978,-5.7153,-5.7159,-5.7275,-5.7308,-5.7347,-5.7372,-5.7507,-5.7579,-5.757,-5.7584,-5.7664,-5.7742,-5.7735,-5.777,-5.7848,-5.7827,-5.7505,-5.7459,-5.7414,-5.7373,-5.7856,-5.7856,-5.8164,-5.8167,-5.8169]},{"header":{"parameterUnit":"m.s-1","parameterCategory":1,"la1":30.2991,"la2":30.254,"lo1":-89.0895,"lo2":-89.0444,"dy":0.0017,"dx":0.0017,"nx":28,"ny":28,"refTime":"2024-10-16T21:00:00:Z","depth":0,"parameterNumber":3,"parameterNumberName":"V-component_of_WINDS"},"data":[0,0,0,0,0,0,0,0,0,0,0,0,0,0,0,0,0,0,0,0,0,0,0,0,0,0,0,0,0,0,0,0,0,0,0,0,0,0,0,0,0,0,0,0,0,0,0,0,0,0,0,0,0,0,0,0,0,0,-3.4405,-3.4405,0,-3.4434,-3.4434,-3.4434,-3.442,-3.4419,-3.4418,-3.4417,-3.4446,-3.4447,-3.4449,0,0,0,0,0,0,0,0,0,0,0,0,0,-3.4332,-3.4334,-3.4404,-3.4405,-3.4405,-3.4434,-3.4434,-3.4434,-3.442,-3.4419,-3.4418,-3.4417,-3.4445,-3.4447,-3.4449,0,0,0,0,0,0,0,0,0,0,0,0,0,-3.4363,-3.4334,-3.4404,-3.4401,-3.4401,-3.4434,-3.4434,-3.4435,-3.442,-3.4419,-3.4418,-3.4417,-3.4445,-3.4447,-3.4449,-3.4485,0,0,-3.4456,-3.4457,0,0,0,0,0,0,0,0,-3.4361,-3.4365,-3.4401,-3.4402,-3.4402,-3.4422,-3.4419,-3.4452,-3.442,-3.4413,-3.4417,-3.4416,-3.4439,-3.4441,-3.4449,-3.4487,-3.4488,-3.4456,-3.4457,-3.4458,-3.4459,0,0,0,0,0,0,0,-3.4359,-3.4364,-3.4416,-3.4402,-3.4402,-3.4397,-3.44,-3.4425,-3.4432,-3.4413,-3.4412,-3.4416,-3.4438,-3.4447,-3.445,-3.4488,-3.4456,-3.4458,-3.4459,-3.446,-3.4553,-3.4554,0,0,0,0,0,0,-3.4357,-3.4362,-3.4415,-3.4417,-3.4378,-3.44,-3.4403,-3.4417,-3.4431,-3.4433,-3.4417,-3.4415,-3.4444,-3.4447,-3.4451,-3.4491,-3.4458,-3.446,-3.4461,-3.4552,-3.4553,-3.4555,0,0,0,0,0,0,-3.4356,-3.4362,-3.4414,-3.4389,-3.4396,-3.4402,-3.4417,-3.4418,-3.4426,-3.4434,-3.4435,-3.4425,-3.4443,-3.4448,-3.4476,-3.4492,-3.4461,-3.4463,-3.4551,-3.4552,-3.4554,-3.4575,0,0,0,0,0,0,-3.4354,-3.4362,-3.4377,-3.439,-3.4397,-3.444,-3.4419,-3.4419,-3.443,-3.4428,-3.4442,-3.4443,-3.4443,-3.4473,-3.4478,-3.4495,-3.4465,-3.4549,-3.4551,-3.4553,-3.4573,-3.4577,-3.4581,0,0,0,0,0,-3.4351,-3.4382,-3.4378,-3.4384,-3.4416,-3.4441,-3.4445,-3.4445,-3.4432,-3.4446,-3.445,-3.4442,-3.449,-3.4476,-3.4482,-3.4499,-3.4548,-3.4551,-3.4553,-3.4571,-3.4577,-3.4581,0,0,0,0,0,0,-3.4371,-3.4384,-3.4379,-3.4415,-3.4427,-3.4439,-3.4457,-3.4451,-3.4466,-3.4464,-3.4462,-3.4465,-3.4494,-3.45,-3.4484,-3.4533,-3.4517,-3.4521,-3.4528,-3.4534,-3.4538,-3.4535,-3.4467,0,0,0,0,0,-3.438,-3.44,-3.441,-3.444,-3.4447,-3.4451,-3.4462,-3.446,-3.4472,-3.4477,-3.4484,-3.4495,-3.4512,-3.4523,-3.454,-3.4574,-3.4575,-3.4589,-3.4593,-3.4596,-3.4599,-3.4614,-3.462,-3.4563,-3.4563,-3.4563,0,0,-3.4397,-3.4407,-3.442,-3.4444,-3.4454,-3.4473,-3.4455,-3.4477,-3.4491,-3.448,-3.4507,-3.4512,-3.4524,-3.4555,-3.4569,-3.4561,-3.4615,-3.4599,-3.4602,-3.4603,-3.4617,-3.4623,-3.4628,-3.4565,-3.4565,-3.4564,0,0,-3.4439,-3.445,-3.4475,-3.4484,-3.4497,-3.4499,-3.4505,-3.4517,-3.452,-3.4547,-3.4538,-3.4554,-3.4585,-3.4593,-3.4601,-3.4643,-3.4635,-3.4648,-3.4669,-3.4684,-3.4688,-3.4692,-3.4704,-3.4709,-3.4651,-3.4651,-3.4651,0,-3.4459,-3.4489,-3.4488,-3.451,-3.452,-3.4511,-3.4535,-3.4543,-3.4562,-3.4568,-3.4559,-3.4595,-3.4603,-3.4633,-3.4643,-3.4651,-3.4656,-3.4646,-3.4688,-3.4692,-3.4695,-3.4707,-3.4712,-3.4653,-3.4653,-3.4652,-3.4652,0,-3.4511,-3.4532,-3.455,-3.4567,-3.4579,-3.4602,-3.4603,-3.4615,-3.4612,-3.4615,-3.464,-3.4649,-3.4666,-3.4673,-3.4671,-3.4703,-3.4697,-3.4688,-3.4671,-3.4702,-3.4713,-3.4717,-3.4655,-3.4654,-3.4654,-3.4653,0,0,-3.4567,-3.4582,-3.4588,-3.4594,-3.4608,-3.4623,-3.4644,-3.466,-3.4669,-3.4682,-3.4698,-3.4723,-3.4713,-3.4723,-3.4721,-3.4734,-3.4763,-3.4723,-3.4723,-3.4728,-3.4796,-3.4801,-3.4806,-3.4758,-3.4759,-3.476,-3.4794,0,-3.4608,-3.4645,-3.4644,-3.4678,-3.4695,-3.4686,-3.4704,-3.4713,-3.4715,-3.4729,-3.4732,-3.4748,-3.4736,-3.4741,-3.4754,-3.4757,-3.4776,-3.4755,-3.4771,-3.4772,-3.4767,-3.4812,-3.4819,-3.485,-3.4798,-3.4799,-3.4799,0,-3.4661,-3.4673,-3.4709,-3.4717,-3.4724,-3.474,-3.4753,-3.4767,-3.4776,-3.4777,-3.4786,-3.4781,-3.4801,-3.4784,-3.481,-3.4795,-3.4802,-3.4804,-3.4805,-3.4805,-3.4786,-3.4811,-3.486,-3.4864,-3.4807,-3.4806,-3.4806,0,-3.4694,-3.4721,-3.4744,-3.475,-3.4761,-3.4772,-3.4776,-3.4785,-3.4793,-3.4805,-3.481,-3.4824,-3.483,-3.484,-3.4839,-3.4827,-3.4864,-3.4848,-3.4863,-3.4863,-3.487,-3.4869,-3.4918,-3.4878,-3.4878,-3.4877,-3.4877,0,-3.4738,-3.476,-3.4759,-3.4774,-3.4796,-3.4794,-3.4816,-3.482,-3.4827,-3.484,-3.4834,-3.4847,-3.4845,-3.4857,-3.4856,-3.4875,-3.4879,-3.4879,-3.4878,-3.4878,-3.4878,-3.4882,-3.4879,-3.4879,-3.4878,-3.4878,-3.4878,0,-3.4779,-3.478,-3.4805,-3.4812,-3.4814,-3.483,-3.4836,-3.4848,-3.485,-3.4867,-3.4871,-3.4872,-3.4886,-3.4886,-3.4903,-3.4901,-3.4925,-3.4923,-3.4922,-3.492,-3.4935,-3.4932,-3.4986,-3.4992,-3.495,-3.495,-3.495,0,-3.4806,-3.4822,-3.483,-3.4839,-3.4844,-3.4858,-3.4867,-3.4864,-3.4873,-3.4883,-3.4894,-3.4908,-3.4918,-3.4941,-3.4943,-3.4954,-3.4951,-3.4969,-3.4953,-3.4952,-3.4948,-3.4946,-3.4947,-3.4972,-3.4972,-3.4972,-3.4973,0,-3.4854,-3.4852,-3.4865,-3.4877,-3.4887,-3.4896,-3.4905,-3.4912,-3.491,-3.492,-3.4934,-3.4942,-3.4957,-3.497,-3.4981,-3.4984,-3.4978,-3.4978,-3.4982,-3.4981,-3.4979,-3.4978,-3.4928,-3.4976,-3.4976,-3.4976,-3.4976,-3.4975,-3.4887,-3.4899,-3.4906,-3.4919,-3.4925,-3.4933,-3.4944,-3.4946,-3.4958,-3.497,-3.4968,-3.4983,-3.4989,-3.5003,-3.5007,-3.5018,-3.5011,-3.5018,-3.5019,-3.502,-3.502,-3.4979,-3.502,-3.502,-3.502,-3.502,-3.502,0,-3.4931,-3.4935,-3.4947,-3.4958,-3.4968,-3.4961,-3.4969,-3.4977,-3.4991,-3.4997,-3.5007,-3.5022,-3.5033,-3.5036,-3.5046,-3.5054,-3.5051,-3.5057,-3.5055,-3.5056,-3.5027,-3.5021,-3.5059,-3.5059,-3.5059,-3.5059,-3.5059,-3.5059,-3.4956,-3.4975,-3.4975,-3.4996,-3.4999,-3.5014,-3.5019,-3.5025,-3.5029,-3.5046,-3.5055,-3.5057,-3.5061,-3.5071,-3.5081,-3.5081,-3.5085,-3.5091,-3.509,-3.5062,-3.5058,-3.5054,-3.5049,-3.5093,-3.5093,-3.5118,-3.5118,-3.5119]}]]